Weather History for KUAO - March, 2013

Change the Weather History Date:

Friday, March 29, 2013

  Actual Average Record
Temperature  
Mean Temperature 58 °F -  
Max Temperature 69 °F - 75 °F (2004)
Min Temperature 48 °F - 28 °F (1998)
Degree Days  
Heating Degree Days 6    
Month to date heating degree days 519  
Since 1 July heating degree days 3644  
Cooling Degree Days 0    
Month to date cooling degree days 0  
Year to date cooling degree days 0  
Growing Degree Days 8 (Base 50)    
Moisture  
Dew Point 48 °F    
Average Humidity 71    
Maximum Humidity 96    
Minimum Humidity 45    
Precipitation  
Precipitation 0.00 in - 1.70 in (1963)
Month to date precipitation 2.33  
Year to date precipitation 6.01  
Sea Level Pressure  
Sea Level Pressure 30.19 in    
Wind  
Wind Speed 3 mph (North)    
Max Wind Speed 9 mph    
Max Gust Speed 13 mph    
Visibility 10 miles    
Events      
T = Trace of Precipitation, MM = Missing Value Source: NWS Daily Summary

Daily Weather History Graph

Daily Weather History Graph

Search for Another Location

Airport or City:

Trip Planner

Search our weather history database for the weather conditions in past years. The results will help you decide how hot, cold, wet, or windy it might be!

Date:

Astronomy

Mar. 29, 2013 Rise Set
Actual Time 6:56 AM PDT 7:35 PM PDT
Civil Twilight 6:26 AM PDT 8:05 PM PDT
Nautical Twilight 5:51 AM PDT 8:40 PM PDT
Astronomical Twilight 5:15 AM PDT 9:17 PM PDT
Moon 10:52 PM PDT (3/29) 8:01 AM PDT (3/29)
Length of Visible Light 13h 38m
Length of Day
12h 39m
Waning Gibbous, 93% of the Moon is Illuminated
Mar 29
Waning Gibbous
Apr 2
Last Quarter
Apr 10
New
Apr 18
First Quarter
Apr 25
Full

Hourly Weather History & Observations

Time (PDT) Temp. Dew Point Humidity Pressure Visibility Wind Dir Wind Speed Gust Speed Precip Events Conditions
12:53 AM 53.1 °F 50.0 °F 89% 30.16 in 10.0 mi Calm Calm - 0.00 in   Overcast
1:53 AM 52.0 °F 50.0 °F 93% 30.17 in 10.0 mi Calm Calm - N/A   Overcast
2:53 AM 51.1 °F 48.9 °F 92% 30.18 in 10.0 mi Calm Calm - N/A   Overcast
3:53 AM 51.1 °F 48.9 °F 92% 30.19 in 10.0 mi SSW 3.5 mph - N/A   Overcast
4:53 AM 51.1 °F 48.9 °F 92% 30.18 in 10.0 mi Calm Calm - N/A   Overcast
5:53 AM 50.0 °F 48.0 °F 93% 30.19 in 10.0 mi Calm Calm - N/A   Overcast
6:53 AM 48.0 °F 46.9 °F 96% 30.20 in 10.0 mi Calm Calm - N/A   Mostly Cloudy
7:50 AM 50.0 °F 48.2 °F 94% 30.21 in 10.0 mi NNW 3.5 mph - N/A   Overcast
7:51 AM 51.1 °F 48.9 °F 92% 30.21 in 10.0 mi NNW 3.5 mph - N/A   Overcast
7:59 AM 51.8 °F 48.2 °F 88% 30.21 in 10.0 mi Calm Calm - N/A   Mostly Cloudy
8:53 AM 52.0 °F 50.0 °F 93% 30.21 in 10.0 mi North 5.8 mph - N/A   Clear
9:53 AM 54.0 °F 50.0 °F 86% 30.21 in 10.0 mi North 5.8 mph - N/A   Overcast
10:53 AM 57.0 °F 50.0 °F 77% 30.22 in 10.0 mi North 6.9 mph - N/A   Overcast
11:53 AM 59.0 °F 48.9 °F 69% 30.22 in 10.0 mi NNW 4.6 mph - N/A   Overcast
12:53 PM 62.1 °F 48.0 °F 60% 30.20 in 10.0 mi East 4.6 mph - N/A   Mostly Cloudy
1:53 PM 64.0 °F 46.9 °F 54% 30.19 in 10.0 mi Variable 4.6 mph - N/A   Overcast
2:53 PM 66.0 °F 46.9 °F 50% 30.18 in 10.0 mi WNW 3.5 mph - N/A   Mostly Cloudy
3:53 PM 66.9 °F 46.0 °F 47% 30.17 in 10.0 mi Calm Calm - N/A   Scattered Clouds
4:53 PM 68.0 °F 46.0 °F 45% 30.16 in 10.0 mi WNW 4.6 mph - N/A   Partly Cloudy
5:53 PM 68.0 °F 46.9 °F 47% 30.15 in 10.0 mi North 3.5 mph - N/A   Clear
6:53 PM 66.0 °F 46.0 °F 48% 30.14 in 10.0 mi Calm Calm - N/A   Clear
7:53 PM 61.0 °F 46.9 °F 60% 30.14 in 10.0 mi Calm Calm - N/A   Clear
8:53 PM 57.0 °F 46.0 °F 67% 30.16 in 10.0 mi Calm Calm - N/A   Clear
9:53 PM 55.9 °F 46.0 °F 69% 30.18 in 10.0 mi Calm Calm - N/A   Clear
10:53 PM 57.0 °F 45.0 °F 64% 30.19 in 10.0 mi East 4.6 mph - N/A   Clear
11:53 PM 54.0 °F 46.0 °F 75% 30.19 in 10.0 mi NE 5.8 mph - N/A   Clear